| time (UTC) | temp F | wind direction | speed knots | gust knots | rain 1hr in | rain 24hr in | rain mn in | humidity % | barometer mb |
| 20260503213128 | 66 | 286 | 0.0 | 0.0 | 0.00 | 0.00 | 0.00 | 28 | 1010.4 |
| 20260503212129 | 66 | 305 | 0.0 | 0.0 | 0.00 | 0.00 | 0.00 | 26 | 1010.5 |
| 20260503211129 | 66 | 296 | 0.0 | 0.0 | 0.00 | 0.00 | 0.00 | 27 | 1010.8 |
| 20260503210128 | 65 | 175 | 0.0 | 0.0 | 0.00 | 0.00 | 0.00 | 28 | 1010.8 |
| 20260503205129 | 64 | 293 | 0.0 | 0.0 | 0.00 | 0.00 | 0.00 | 28 | 1010.9 |
| 20260503204227 | 66 | 282 | 0.0 | 0.0 | 0.00 | 0.00 | 0.00 | 28 | 1011.1 |
| 20260503203227 | 65 | 35 | 0.0 | 0.0 | 0.00 | 0.00 | 0.00 | 28 | 1011.3 |
| 20260503203132 | 65 | 327 | 0.0 | 0.0 | 0.00 | 0.00 | 0.00 | 27 | 1011.2 |
| 20260503202128 | 65 | 308 | 0.0 | 0.0 | 0.00 | 0.00 | 0.00 | 27 | 1011.3 |
| 20260503201127 | 66 | 323 | 0.0 | 0.0 | 0.00 | 0.00 | 0.00 | 28 | 1011.4 |
| 20260503195130 | 65 | 306 | 0.0 | 0.0 | 0.00 | 0.00 | 0.00 | 28 | 1011.7 |
| 20260503194130 | 65 | 251 | 0.0 | 0.0 | 0.00 | 0.00 | 0.00 | 28 | 1011.6 |
| 20260503193227 | 65 | 309 | 0.0 | 0.0 | 0.00 | 0.00 | 0.00 | 28 | 1011.9 |
| 20260503192230 | 65 | 293 | 0.0 | 0.0 | 0.00 | 0.00 | 0.00 | 27 | 1011.9 |
| 20260503191327 | 65 | 311 | 0.0 | 0.0 | 0.00 | 0.00 | 0.00 | 26 | 1012.0 |
| 20260503190329 | 65 | 208 | 0.0 | 0.0 | 0.00 | 0.00 | 0.00 | 28 | 1012.0 |
| 20260503184328 | 64 | 275 | 0.0 | 0.0 | 0.00 | 0.00 | 0.00 | 26 | 1012.2 |
| 20260503183328 | 63 | 280 | 0.0 | 0.0 | 0.00 | 0.00 | 0.00 | 23 | 1012.3 |
| 20260503182329 | 63 | 321 | 0.0 | 0.0 | 0.00 | 0.00 | 0.00 | 25 | 1012.5 |
| 20260503181330 | 63 | 206 | 0.0 | 0.0 | 0.00 | 0.00 | 0.00 | 26 | 1012.5 |
| 20260503180328 | 63 | 108 | 0.0 | 0.0 | 0.00 | 0.00 | 0.00 | 28 | 1012.7 |
| 20260503175329 | 63 | 334 | 0.0 | 0.0 | 0.00 | 0.00 | 0.00 | 28 | 1012.8 |
| 20260503174330 | 63 | 275 | 0.0 | 0.0 | 0.00 | 0.00 | 0.00 | 30 | 1012.8 |
| 20260503173328 | 63 | 229 | 0.0 | 0.0 | 0.00 | 0.00 | 0.00 | 28 | 1012.7 |
| 20260503172327 | 63 | 179 | 0.0 | 0.0 | 0.00 | 0.00 | 0.00 | 27 | 1012.9 |
| 20260503171328 | 63 | 274 | 0.0 | 0.0 | 0.00 | 0.00 | 0.00 | 28 | 1013.0 |
| 20260503170328 | 62 | 222 | 0.0 | 0.0 | 0.00 | 0.00 | 0.00 | 29 | 1013.0 |
| 20260503150429 | 58 | 23 | 0.0 | 0.0 | 0.00 | 0.00 | 0.00 | 54 | 1013.1 |
| 20260503130527 | 52 | 337 | 0.0 | 0.0 | 0.00 | 0.00 | 0.00 | 81 | 1012.8 |
| 20260503100227 | 42 | 292 | 0.0 | 0.0 | 0.00 | 0.00 | 0.00 | 96 | 1011.9 |
| 20260503090428 | 42 | 292 | 0.0 | 0.0 | 0.00 | 0.00 | 0.00 | 92 | 1012.2 |
| 20260503081629 | 44 | 292 | 0.0 | 0.0 | 0.00 | 0.00 | 0.00 | 90 | 1012.5 |
| 20260503080630 | 44 | 292 | 0.0 | 0.0 | 0.00 | 0.00 | 0.00 | 90 | 1012.6 |
| 20260503072627 | 46 | 292 | 0.0 | 0.0 | 0.00 | 0.00 | 0.00 | 86 | 1013.0 |
| 20260503071629 | 46 | 292 | 0.0 | 0.0 | 0.00 | 0.00 | 0.00 | 85 | 1013.1 |
| 20260503070727 | 47 | 292 | 0.0 | 0.0 | 0.00 | 0.00 | 0.00 | 85 | 1013.2 |
| 20260503054927 | 47 | 247 | 0.0 | 0.0 | 0.00 | 0.00 | 0.00 | 86 | 1013.9 |
| 20260503053929 | 48 | 247 | 0.0 | 0.0 | 0.00 | 0.00 | 0.00 | 84 | 1014.0 |
| 20260503052929 | 48 | 247 | 0.0 | 0.0 | 0.00 | 0.00 | 0.00 | 86 | 1014.1 |
| 20260503052027 | 48 | 247 | 0.0 | 0.0 | 0.00 | 0.00 | 0.00 | 89 | 1014.3 |
| 20260503051028 | 47 | 247 | 0.0 | 0.0 | 0.00 | 0.00 | 0.00 | 90 | 1014.2 |
| 20260503050128 | 48 | 247 | 0.0 | 0.0 | 0.00 | 0.00 | 0.00 | 87 | 1014.3 |
| 20260503045212 | 48 | 180 | 0.0 | 0.0 | 0.00 | 0.00 | 0.00 | 85 | 1014.6 |
| 20260503044212 | 48 | 180 | 0.0 | 0.0 | 0.00 | 0.00 | 0.00 | 81 | 1014.8 |
| 20260503043214 | 48 | 180 | 0.0 | 0.0 | 0.00 | 0.00 | 0.00 | 83 | 1014.8 |
| 20260503041213 | 49 | 180 | 0.0 | 0.0 | 0.00 | 0.00 | 0.00 | 81 | 1015.0 |
| 20260503040215 | 49 | 180 | 0.0 | 0.0 | 0.00 | 0.00 | 0.00 | 78 | 1014.8 |
| 20260503035214 | 49 | 292 | 0.0 | 0.0 | 0.00 | 0.00 | 0.00 | 75 | 1015.3 |
| 20260503034213 | 50 | 292 | 0.0 | 0.0 | 0.00 | 0.00 | 0.00 | 73 | 1015.7 |
| 20260503033212 | 50 | 292 | 0.0 | 0.0 | 0.00 | 0.00 | 0.00 | 70 | 1015.7 |
| 20260503032312 | 50 | 292 | 0.0 | 0.0 | 0.00 | 0.00 | 0.00 | 68 | 1015.6 |
| 20260503031313 | 51 | 292 | 0.0 | 0.0 | 0.00 | 0.00 | 0.00 | 67 | 1015.7 |
| 20260503030311 | 52 | 292 | 0.0 | 0.0 | 0.00 | 0.00 | 0.00 | 65 | 1015.9 |
| 20260503025314 | 53 | 292 | 0.0 | 0.0 | 0.00 | 0.00 | 0.00 | 62 | 1016.3 |
| 20260503023313 | 54 | 173 | 0.0 | 0.0 | 0.00 | 0.00 | 0.00 | 57 | 1016.4 |
| 20260503022315 | 55 | 301 | 0.0 | 0.0 | 0.00 | 0.00 | 0.00 | 54 | 1016.3 |
| 20260503021313 | 55 | 302 | 0.0 | 0.0 | 0.00 | 0.00 | 0.00 | 52 | 1016.3 |
| 20260503015314 | 57 | 288 | 0.0 | 0.0 | 0.00 | 0.00 | 0.00 | 47 | 1016.1 |
| 20260503014314 | 57 | 294 | 0.0 | 0.0 | 0.00 | 0.00 | 0.00 | 46 | 1015.9 |
| 20260503013413 | 58 | 280 | 0.0 | 0.0 | 0.00 | 0.00 | 0.00 | 44 | 1015.9 |
| 20260503012413 | 58 | 303 | 0.0 | 0.0 | 0.00 | 0.00 | 0.00 | 43 | 1015.6 |
| 20260503011415 | 58 | 292 | 0.0 | 0.0 | 0.00 | 0.00 | 0.00 | 41 | 1015.7 |
| 20260503010512 | 59 | 309 | 0.0 | 0.0 | 0.00 | 0.00 | 0.00 | 40 | 1015.5 |
| 20260503005513 | 59 | 308 | 0.0 | 0.0 | 0.00 | 0.00 | 0.00 | 40 | 1015.5 |
| 20260503004513 | 59 | 297 | 0.0 | 0.0 | 0.00 | 0.00 | 0.00 | 42 | 1015.6 |
| 20260503003514 | 58 | 310 | 0.0 | 0.0 | 0.00 | 0.00 | 0.00 | 43 | 1015.5 |
| 20260503002515 | 58 | 292 | 0.0 | 0.0 | 0.00 | 0.00 | 0.00 | 45 | 1015.7 |
| 20260503001612 | 56 | 247 | 0.0 | 0.0 | 0.00 | 0.00 | 0.00 | 49 | 1015.5 |
| 20260503000711 | 56 | 247 | 0.0 | 0.0 | 0.00 | 0.00 | 0.00 | 50 | 1015.7 |
| 20260502235714 | 58 | 247 | 0.0 | 0.0 | 0.00 | 0.00 | 0.00 | 46 | 1015.7 |
| 20260502234811 | 58 | 247 | 0.0 | 0.0 | 0.00 | 0.00 | 0.00 | 45 | 1015.8 |
| 20260502233814 | 58 | 263 | 0.0 | 0.0 | 0.00 | 0.00 | 0.00 | 42 | 1015.9 |
| 20260502231812 | 60 | 275 | 0.0 | 0.0 | 0.00 | 0.00 | 0.00 | 38 | 1016.2 |
| 20260502230813 | 60 | 262 | 0.0 | 0.0 | 0.00 | 0.00 | 0.00 | 39 | 1016.3 |
| 20260502225812 | 59 | 248 | 0.0 | 0.0 | 0.00 | 0.00 | 0.00 | 39 | 1016.5 |
| 20260502224813 | 59 | 258 | 0.0 | 0.0 | 0.00 | 0.00 | 0.00 | 41 | 1016.4 |
| 20260502223912 | 59 | 283 | 0.0 | 0.0 | 0.00 | 0.00 | 0.00 | 40 | 1016.5 |
| 20260502222012 | 61 | 280 | 0.0 | 0.0 | 0.00 | 0.00 | 0.00 | 35 | 1016.7 |
| 20260502221014 | 60 | 302 | 0.0 | 0.0 | 0.00 | 0.00 | 0.00 | 36 | 1016.8 |
| 20260502220013 | 61 | 261 | 0.0 | 0.0 | 0.00 | 0.00 | 0.00 | 34 | 1016.8 |
| 20260502215014 | 61 | 283 | 0.0 | 0.0 | 0.00 | 0.00 | 0.00 | 34 | 1017.0 |
| 20260502214013 | 61 | 258 | 0.0 | 0.0 | 0.00 | 0.00 | 0.00 | 33 | 1017.1 |